Weather History for Sleetmute, AK

Change the Weather History Date:

Wednesday, August 21, 2013

  Actual Average Record
Temperature  
Mean Temperature 54 °F -  
Max Temperature 57 °F 57 °F 73 °F (2004)
Min Temperature 51 °F 43 °F 32 °F (2006)
Degree Days  
Heating Degree Days 11    
Growing Degree Days 4 (Base 50)    
Moisture  
Dew Point 53 °F    
Average Humidity 94    
Maximum Humidity 100    
Minimum Humidity 88    
Precipitation  
Precipitation 0.01 in - - ()
Sea Level Pressure  
Sea Level Pressure 29.73 in    
Wind  
Wind Speed 1 mph (SSE)    
Max Wind Speed 5 mph    
Max Gust Speed -    
Visibility 8 miles    
Events      
Averages and records for this station are not official NWS values.
T = Trace of Precipitation, MM = Missing Value Source: NWS Daily Summary

Daily Weather History Graph

Daily Weather History Graph

Search for Another Location

Airport:

Trip Planner

Search our weather history database for the weather conditions in past years. The results will help you decide how hot, cold, wet, or windy it might be!

Date:

Astronomy

Aug. 21, 2013 Rise Set
Actual Time 6:51 AM AKDT 10:09 PM AKDT
Civil Twilight 5:58 AM AKDT 11:01 PM AKDT
Nautical Twilight 4:42 AM AKDT 12:16 AM AKDT
Astronomical Twilight 3:04 AM AKDT 1:59 AM AKDT
Moon 9:41 PM AKDT (8/21) 8:17 AM AKDT (8/21)
Length of Visible Light 17h 02m
Length of Day
15h 18m
Full, 99% of the Moon is Illuminated
Aug 21
Full
Aug 28
Last Quarter
Sep 5
New
Sep 12
First Quarter
Sep 19
Full

Hourly Weather History & Observations

Time (AKDT) Temp. Dew Point Humidity Pressure Visibility Wind Dir Wind Speed Gust Speed Precip Events Conditions
12:16 AM 53.6 °F 51.8 °F 94% 29.83 in 10.0 mi Calm Calm - N/A   Overcast
12:56 AM 53.6 °F 51.8 °F 94% 29.82 in 10.0 mi Calm Calm - N/A   Overcast
1:16 AM 53.6 °F 51.8 °F 94% 29.82 in 10.0 mi Calm Calm - N/A   Overcast
1:36 AM 53.6 °F 51.8 °F 94% 29.82 in 10.0 mi Calm Calm - N/A   Overcast
2:16 AM 53.6 °F 51.8 °F 94% 29.81 in 8.0 mi Calm Calm - N/A   Overcast
2:36 AM 53.6 °F 51.8 °F 94% 29.81 in 4.0 mi Calm Calm - N/A   Mostly Cloudy
3:16 AM 53.6 °F 51.8 °F 94% 29.81 in 4.0 mi Calm Calm - N/A   Overcast
3:36 AM 53.6 °F 51.8 °F 94% 29.80 in 3.0 mi Calm Calm - N/A   Overcast
4:36 AM 53.6 °F 51.8 °F 94% 29.79 in 3.0 mi Calm Calm - N/A   Overcast
4:56 AM 53.6 °F 51.8 °F 94% 29.78 in 3.0 mi Calm Calm - N/A   Overcast
5:16 AM 51.8 °F 51.8 °F 100% 29.78 in 5.0 mi Calm Calm - N/A   Overcast
5:36 AM 51.8 °F 51.8 °F 100% 29.78 in 7.0 mi Calm Calm - N/A   Overcast
5:56 AM 53.6 °F 51.8 °F 94% 29.77 in 10.0 mi Calm Calm - N/A   Overcast
6:16 AM 51.8 °F 51.8 °F 100% 29.78 in 10.0 mi Calm Calm - N/A   Overcast
6:36 AM 51.8 °F 50.0 °F 94% 29.78 in 10.0 mi Calm Calm - N/A   Overcast
7:16 AM 51.8 °F 50.0 °F 94% 29.77 in 10.0 mi Calm Calm - N/A   Overcast
7:36 AM 51.8 °F 50.0 °F 94% 29.76 in 10.0 mi Calm Calm - N/A   Overcast
7:56 AM 51.8 °F 50.0 °F 94% 29.76 in 10.0 mi Calm Calm - N/A   Overcast
8:16 AM 51.8 °F 50.0 °F 94% 29.76 in 9.0 mi Calm Calm - N/A   Overcast
9:16 AM 53.6 °F 51.8 °F 94% 29.75 in 9.0 mi Calm Calm - N/A   Overcast
9:36 AM 53.6 °F 51.8 °F 94% 29.75 in 10.0 mi Calm Calm - N/A   Overcast
10:16 AM 53.6 °F 51.8 °F 94% 29.75 in 7.0 mi SSE 3.5 mph - N/A   Overcast
10:36 AM 53.6 °F 51.8 °F 94% 29.74 in 9.0 mi Calm Calm - N/A   Overcast
10:56 AM 53.6 °F 51.8 °F 94% 29.74 in 5.0 mi Calm Calm - N/A   Overcast
11:16 AM 53.6 °F 51.8 °F 94% 29.74 in 8.0 mi Calm Calm - N/A   Overcast
11:36 AM 53.6 °F 51.8 °F 94% 29.73 in 4.0 mi SSE 3.5 mph - N/A   Overcast
11:56 AM 55.4 °F 53.6 °F 94% 29.73 in 5.0 mi Calm Calm - N/A   Overcast
12:36 PM 55.4 °F 53.6 °F 94% 29.73 in 5.0 mi SSE 4.6 mph - N/A   Overcast
12:56 PM 55.4 °F 53.6 °F 94% 29.73 in 9.0 mi South 3.5 mph - N/A   Mostly Cloudy
1:36 PM 55.4 °F 53.6 °F 94% 29.73 in 10.0 mi South 3.5 mph - N/A   Overcast
1:56 PM 55.4 °F 53.6 °F 94% 29.72 in 9.0 mi SSE 3.5 mph - N/A   Overcast
2:16 PM 55.4 °F 53.6 °F 94% 29.72 in 6.0 mi SSE 4.6 mph - N/A   Mostly Cloudy
2:36 PM 55.4 °F 53.6 °F 94% 29.72 in 10.0 mi SE 3.5 mph - N/A   Overcast
2:56 PM 55.4 °F 53.6 °F 94% 29.71 in 9.0 mi South 3.5 mph - N/A   Mostly Cloudy
3:16 PM 57.2 °F 53.6 °F 88% 29.71 in 10.0 mi SSE 3.5 mph - N/A   Overcast
3:36 PM 57.2 °F 55.4 °F 94% 29.71 in 9.0 mi South 3.5 mph - N/A   Overcast
3:56 PM 57.2 °F 55.4 °F 94% 29.70 in 9.0 mi South 3.5 mph - N/A   Overcast
4:16 PM 57.2 °F 55.4 °F 94% 29.70 in 6.0 mi SE 4.6 mph - N/A   Overcast
4:36 PM 57.2 °F 55.4 °F 94% 29.70 in 7.0 mi ESE 3.5 mph - N/A   Overcast
4:56 PM 57.2 °F 55.4 °F 94% 29.70 in 6.0 mi SE 3.5 mph - N/A   Overcast
5:16 PM 57.2 °F 55.4 °F 94% 29.69 in 1.5 mi Calm Calm - N/A   Overcast
5:36 PM 57.2 °F 55.4 °F 94% 29.69 in 10.0 mi SE 3.5 mph - N/A   Overcast
5:56 PM 57.2 °F 55.4 °F 94% 29.69 in 10.0 mi South 3.5 mph - N/A   Overcast
6:16 PM 57.2 °F 55.4 °F 94% 29.68 in 10.0 mi SSE 3.5 mph - N/A   Overcast
6:36 PM 57.2 °F 55.4 °F 94% 29.68 in 10.0 mi SSE 3.5 mph - N/A   Overcast
7:16 PM 57.2 °F 55.4 °F 94% 29.68 in 10.0 mi South 3.5 mph - N/A   Overcast
7:36 PM 57.2 °F 55.4 °F 94% 29.68 in 4.0 mi South 4.6 mph - N/A   Overcast
7:56 PM 57.2 °F 55.4 °F 94% 29.68 in 2.5 mi Calm Calm - N/A   Overcast
8:16 PM 57.2 °F 55.4 °F 94% 29.68 in 8.0 mi Calm Calm - N/A   Overcast
8:36 PM 57.2 °F 55.4 °F 94% 29.68 in 1.0 mi Calm Calm - N/A   Overcast
8:56 PM 57.2 °F 55.4 °F 94% 29.68 in 3.0 mi Calm Calm - 0.01 in   Overcast
9:16 PM 55.4 °F 53.6 °F 94% 29.68 in 5.0 mi Calm Calm - N/A   Overcast
9:36 PM 55.4 °F 53.6 °F 94% 29.68 in 10.0 mi Calm Calm - N/A   Overcast
9:56 PM 55.4 °F 53.6 °F 94% 29.69 in 10.0 mi Calm Calm - N/A   Overcast
10:16 PM 55.4 °F 53.6 °F 94% 29.69 in 10.0 mi Calm Calm - N/A   Overcast
10:36 PM 55.4 °F 53.6 °F 94% 29.69 in 10.0 mi Calm Calm - N/A   Overcast
10:56 PM 55.4 °F 53.6 °F 94% 29.70 in 9.0 mi Calm Calm - N/A   Overcast
11:16 PM 55.4 °F 53.6 °F 94% 29.70 in 5.0 mi Calm Calm - N/A   Overcast
11:36 PM 55.4 °F 53.6 °F 94% 29.69 in 5.0 mi Calm Calm - N/A   Overcast
11:56 PM 55.4 °F 53.6 °F 94% 29.69 in 9.0 mi Calm Calm - N/A   Overcast